Weather History for KBPC - March, 2013

Change the Weather History Date:

Saturday, March 2, 2013

  Actual Average (KBGD) Record (KBGD)
Temperature  
Mean Temperature 45 °F 45 °F  
Max Temperature 64 °F 58 °F 85 °F (1967)
Min Temperature 26 °F 33 °F 7 °F (2002)
Degree Days  
Heating Degree Days 20 20  
Month to date heating degree days 40  
Since 1 July heating degree days 3033  
Cooling Degree Days 0 0  
Month to date cooling degree days 0  
Year to date cooling degree days 0  
Moisture  
Dew Point 30 °F    
Average Humidity 65    
Maximum Humidity 100    
Minimum Humidity 26    
Precipitation  
Precipitation 0.00 in 0.04 in 0.71 in (1957)
Month to date precipitation 0.08  
Year to date precipitation 1.29  
Snow  
Snow 0.00 in - 8.00 in (1969)
Month to date snowfall  
Since 1 July snowfall  
Snow Depth -    
Sea Level Pressure  
Sea Level Pressure 30.25 in    
Wind  
Wind Speed 7 mph (WSW)    
Max Wind Speed 15 mph    
Max Gust Speed 23 mph    
Visibility 10 miles    
Events      
T = Trace of Precipitation, MM = Missing Value Source: NWS Daily Summary

Daily Weather History Graph

Daily Weather History Graph

Search for Another Location

Airport or City:

Trip Planner

Search our weather history database for the weather conditions in past years. The results will help you decide how hot, cold, wet, or windy it might be!

Date:

Astronomy

Mar. 02, 2013 Rise Set
Actual Time 7:12 AM CST 6:40 PM CST
Civil Twilight 6:46 AM CST 7:06 PM CST
Nautical Twilight 6:17 AM CST 7:35 PM CST
Astronomical Twilight 5:47 AM CST 8:05 PM CST
Moon No Moon Rise 9:53 AM CST (3/2)
Length of Visible Light 12h 19m
Length of Day
11h 27m
Waning Gibbous, 74% of the Moon is Illuminated
Mar 2
Waning Gibbous
Mar 4
Last Quarter
Mar 11
New
Mar 19
First Quarter
Mar 27
Full

Hourly Weather History & Observations

Time (CST) Temp. Windchill Dew Point Humidity Pressure Visibility Wind Dir Wind Speed Gust Speed Precip Events Conditions
12:15 AM 28.4 °F 22.2 °F 28.4 °F 100% 30.37 in 10.0 mi WSW 5.8 mph - N/A   Clear
12:35 AM 28.4 °F 21.2 °F 26.6 °F 93% 30.36 in 10.0 mi SW 6.9 mph - N/A   Scattered Clouds
1:15 AM 30.2 °F 23.4 °F 28.4 °F 93% 30.36 in 10.0 mi SW 6.9 mph - N/A   Mostly Cloudy
1:35 AM 28.4 °F 20.4 °F 28.4 °F 100% 30.37 in 10.0 mi SW 8.1 mph - N/A   Scattered Clouds
1:55 AM 28.4 °F 21.2 °F 28.4 °F 100% 30.36 in 10.0 mi SW 6.9 mph - N/A   Clear
2:15 AM 28.4 °F 21.2 °F 26.6 °F 93% 30.36 in 10.0 mi SW 6.9 mph - N/A   Scattered Clouds
2:35 AM 28.4 °F 22.2 °F 26.6 °F 93% 30.35 in 10.0 mi SW 5.8 mph - N/A   Clear
2:55 AM 28.4 °F 20.4 °F 26.6 °F 93% 30.35 in 10.0 mi SW 8.1 mph - N/A   Clear
3:15 AM 28.4 °F 20.4 °F 28.4 °F 100% 30.35 in 10.0 mi SW 8.1 mph - N/A   Clear
3:35 AM 28.4 °F 21.2 °F 28.4 °F 100% 30.34 in 10.0 mi SW 6.9 mph - N/A   Scattered Clouds
3:55 AM 28.4 °F 21.2 °F 28.4 °F 100% 30.33 in 10.0 mi SW 6.9 mph - N/A   Scattered Clouds
4:15 AM 28.4 °F 20.4 °F 28.4 °F 100% 30.34 in 10.0 mi WSW 8.1 mph - N/A   Mostly Cloudy
4:35 AM 28.4 °F 20.4 °F 26.6 °F 93% 30.33 in 10.0 mi SW 8.1 mph - N/A   Scattered Clouds
5:15 AM 26.6 °F 19.1 °F 26.6 °F 100% 30.33 in 10.0 mi SW 6.9 mph - N/A   Clear
5:35 AM 26.6 °F 19.1 °F 26.6 °F 100% 30.33 in 10.0 mi SW 6.9 mph - N/A   Clear
6:15 AM 28.4 °F 21.2 °F 28.4 °F 100% 30.32 in 10.0 mi SW 6.9 mph - N/A   Clear
6:35 AM 28.4 °F 22.2 °F 28.4 °F 100% 30.31 in 10.0 mi SW 5.8 mph - N/A   Clear
6:55 AM 28.4 °F 22.2 °F 28.4 °F 100% 30.31 in 10.0 mi SW 5.8 mph - N/A   Clear
7:15 AM 30.2 °F 25.4 °F 28.4 °F 93% 30.31 in 10.0 mi SW 4.6 mph - N/A   Clear
7:35 AM 30.2 °F 22.6 °F 28.4 °F 93% 30.31 in 10.0 mi SW 8.1 mph - N/A   Clear
7:55 AM 32.0 °F 24.8 °F 30.2 °F 93% 30.31 in 10.0 mi WSW 8.1 mph - N/A   Clear
8:15 AM 32.0 °F 24.8 °F 30.2 °F 93% 30.32 in 10.0 mi WSW 8.1 mph - N/A   Clear
8:35 AM 33.8 °F 27.0 °F 32.0 °F 93% 30.33 in 10.0 mi WSW 8.1 mph - N/A   Clear
8:55 AM 33.8 °F 25.8 °F 32.0 °F 93% 30.32 in 10.0 mi WSW 10.4 mph - N/A   Clear
9:15 AM 35.6 °F 28.0 °F 32.0 °F 87% 30.32 in 10.0 mi WSW 10.4 mph - N/A   Clear
9:35 AM 39.2 °F 32.0 °F 32.0 °F 75% 30.32 in 10.0 mi WSW 11.5 mph - N/A   Clear
10:15 AM 44.6 °F 39.7 °F 32.0 °F 61% 30.32 in 10.0 mi WSW 9.2 mph - N/A   Clear
10:35 AM 46.4 °F 41.9 °F 32.0 °F 57% 30.31 in 10.0 mi WSW 9.2 mph - N/A   Clear
10:55 AM 50.0 °F - 33.8 °F 54% 30.31 in 10.0 mi West 9.2 mph - N/A   Clear
11:35 AM 55.4 °F - 33.8 °F 44% 30.30 in 10.0 mi West 10.4 mph - N/A   Clear
11:55 AM 55.4 °F - 33.8 °F 44% 30.29 in 10.0 mi West 8.1 mph - N/A   Clear
12:15 PM 59.0 °F - 32.0 °F 36% 30.28 in 10.0 mi WSW 6.9 mph - N/A   Clear
12:35 PM 59.0 °F - 32.0 °F 36% 30.27 in 10.0 mi West 10.4 mph - N/A   Clear
1:15 PM 62.6 °F - 30.2 °F 30% 30.25 in 10.0 mi NW 11.5 mph - N/A   Clear
1:35 PM 62.6 °F - 28.4 °F 27% 30.24 in 10.0 mi NNW 10.4 mph - N/A   Clear
1:55 PM 62.6 °F - 30.2 °F 30% 30.23 in 10.0 mi NNW 10.4 mph 18.4 mph N/A   Clear
2:15 PM 62.6 °F - 30.2 °F 30% 30.22 in 10.0 mi NNW 10.4 mph - N/A   Clear
2:35 PM 62.6 °F - 30.2 °F 30% 30.21 in 10.0 mi NW 15.0 mph 23.0 mph N/A   Clear
2:55 PM 64.4 °F - 30.2 °F 28% 30.20 in 10.0 mi NW 10.4 mph - N/A   Clear
3:15 PM 64.4 °F - 30.2 °F 28% 30.19 in 10.0 mi NW 6.9 mph - N/A   Clear
3:35 PM 64.4 °F - 28.4 °F 26% 30.19 in 10.0 mi NNW 12.7 mph 17.3 mph N/A   Clear
3:55 PM 64.4 °F - 30.2 °F 28% 30.18 in 10.0 mi NW 11.5 mph - N/A   Clear
4:15 PM 64.4 °F - 30.2 °F 28% 30.18 in 10.0 mi NW 10.4 mph 17.3 mph N/A   Clear
4:35 PM 64.4 °F - 30.2 °F 28% 30.18 in 10.0 mi NW 9.2 mph - N/A   Clear
4:55 PM 64.4 °F - 30.2 °F 28% 30.18 in 10.0 mi NNW 5.8 mph - N/A   Clear
5:15 PM 64.4 °F - 30.2 °F 28% 30.17 in 10.0 mi NNE 8.1 mph - N/A   Clear
5:35 PM 64.4 °F - 30.2 °F 28% 30.17 in 10.0 mi NNW 6.9 mph - N/A   Clear
5:55 PM 62.6 °F - 30.2 °F 30% 30.16 in 10.0 mi NNE 3.5 mph - N/A   Clear
6:15 PM 62.6 °F - 30.2 °F 30% 30.17 in 10.0 mi NE 4.6 mph - N/A   Clear
6:35 PM 59.0 °F - 32.0 °F 36% 30.16 in 10.0 mi NE 5.8 mph - N/A   Clear
7:15 PM 57.2 °F - 30.2 °F 36% 30.17 in 10.0 mi East 3.5 mph - N/A   Clear
7:35 PM 53.6 °F - 30.2 °F 41% 30.16 in 10.0 mi ESE 3.5 mph - N/A   Clear
7:55 PM 50.0 °F - 32.0 °F 50% 30.16 in 10.0 mi SSE 6.9 mph - N/A   Clear
8:15 PM 50.0 °F - 32.0 °F 50% 30.16 in 10.0 mi SSE 5.8 mph - N/A   Clear
8:35 PM 46.4 °F 42.9 °F 32.0 °F 57% 30.16 in 10.0 mi SSE 6.9 mph - N/A   Clear
8:55 PM 46.4 °F 42.9 °F 33.8 °F 62% 30.16 in 10.0 mi SSE 6.9 mph - N/A   Clear
9:15 PM 44.6 °F 39.2 °F 33.8 °F 66% 30.16 in 10.0 mi South 10.4 mph - N/A   Clear
9:35 PM 44.6 °F 40.7 °F 33.8 °F 66% 30.16 in 10.0 mi South 6.9 mph - N/A   Clear
9:55 PM 44.6 °F 39.7 °F 33.8 °F 66% 30.16 in 10.0 mi South 9.2 mph - N/A   Clear
10:15 PM 42.8 °F 40.1 °F 33.8 °F 70% 30.16 in 10.0 mi SW 4.6 mph - N/A   Clear
10:35 PM 41.0 °F 39.0 °F 32.0 °F 70% 30.16 in 10.0 mi SW 3.5 mph - N/A   Clear
10:55 PM 39.2 °F - 32.0 °F 75% 30.15 in 10.0 mi Calm Calm - N/A   Clear
11:15 PM 39.2 °F 34.2 °F 32.0 °F 75% 30.14 in 10.0 mi WSW 6.9 mph - N/A   Clear
11:35 PM 39.2 °F 37.0 °F 32.0 °F 75% 30.13 in 10.0 mi WNW 3.5 mph - N/A   Clear
11:55 PM 39.2 °F 35.9 °F 32.0 °F 75% 30.13 in 10.0 mi West 4.6 mph - N/A   Clear